| time (UTC) | temp F | wind direction | speed MPH | gust MPH | rain 1hr in | rain 24hr in | rain mn in | humidity % | barometer mb |
| 20260507060602 | 57 | 23 | 3.0 | 9.0 | 0.00 | 0.10 | 0.00 | 87 | 1016.3 |
| 20260507060313 | 57 | 24 | 5.0 | 9.0 | 0.00 | 0.10 | 0.00 | 87 | 1017.2 |
| 20260507060058 | 57 | 64 | 2.0 | 8.0 | 0.00 | 0.10 | 0.00 | 87 | 1016.3 |
| 20260507055837 | 57 | 18 | 3.0 | 8.0 | 0.00 | 0.10 | 0.00 | 87 | 1017.3 |
| 20260507055600 | 57 | 70 | 3.0 | 9.0 | 0.00 | 0.10 | 0.00 | 87 | 1016.4 |
| 20260507055332 | 58 | 62 | 4.0 | 9.0 | 0.00 | 0.10 | 0.00 | 87 | 1017.3 |
| 20260507055034 | 57 | 58 | 3.0 | 9.0 | 0.00 | 0.10 | 0.00 | 87 | 1016.4 |
| 20260507054828 | 58 | 359 | 5.0 | 9.0 | 0.00 | 0.10 | 0.00 | 87 | 1017.4 |
| 20260507054526 | 57 | 53 | 4.0 | 8.0 | 0.00 | 0.10 | 0.00 | 86 | 1016.4 |
| 20260507054325 | 58 | 62 | 3.0 | 8.0 | 0.00 | 0.10 | 0.00 | 86 | 1017.4 |
| 20260507054021 | 57 | 55 | 4.0 | 7.0 | 0.00 | 0.10 | 0.00 | 86 | 1016.5 |
| 20260507053822 | 58 | 76 | 4.0 | 8.0 | 0.00 | 0.10 | 0.00 | 86 | 1017.5 |
| 20260507053504 | 57 | 56 | 4.0 | 9.0 | 0.00 | 0.10 | 0.00 | 86 | 1016.6 |
| 20260507053319 | 58 | 62 | 3.0 | 9.0 | 0.00 | 0.10 | 0.00 | 86 | 1017.6 |
| 20260507053058 | 57 | 58 | 4.0 | 9.0 | 0.00 | 0.10 | 0.00 | 86 | 1016.7 |
| 20260507052815 | 58 | 87 | 4.0 | 9.0 | 0.00 | 0.10 | 0.00 | 86 | 1017.6 |
| 20260507052551 | 57 | 50 | 3.0 | 9.0 | 0.00 | 0.10 | 0.00 | 86 | 1016.4 |
| 20260507052352 | 58 | 52 | 4.0 | 9.0 | 0.00 | 0.10 | 0.00 | 86 | 1017.4 |
| 20260507052024 | 58 | 60 | 4.0 | 9.0 | 0.00 | 0.10 | 0.00 | 86 | 1016.5 |
| 20260507051826 | 58 | 57 | 5.0 | 9.0 | 0.00 | 0.10 | 0.00 | 86 | 1017.6 |
| 20260507051504 | 58 | 60 | 4.0 | 9.0 | 0.00 | 0.10 | 0.00 | 86 | 1016.6 |
| 20260507051342 | 58 | 66 | 4.0 | 9.0 | 0.00 | 0.10 | 0.00 | 86 | 1017.6 |
| 20260507051035 | 58 | 44 | 4.0 | 9.0 | 0.00 | 0.10 | 0.00 | 86 | 1016.5 |
| 20260507050817 | 58 | 43 | 4.0 | 9.0 | 0.00 | 0.10 | 0.00 | 86 | 1017.6 |
| 20260507050531 | 58 | 50 | 6.0 | 10.0 | 0.00 | 0.10 | 0.00 | 86 | 1016.6 |
| 20260507050332 | 58 | 46 | 5.0 | 10.0 | 0.00 | 0.10 | 0.00 | 86 | 1017.6 |
| 20260507050119 | 58 | 57 | 5.0 | 10.0 | 0.00 | 0.10 | 0.00 | 86 | 1016.6 |
| 20260507045819 | 58 | 25 | 6.0 | 10.0 | 0.00 | 0.10 | 0.10 | 86 | 1017.6 |
| 20260507045550 | 58 | 60 | 3.0 | 10.0 | 0.00 | 0.10 | 0.10 | 86 | 1016.6 |
| 20260507045314 | 58 | 35 | 3.0 | 10.0 | 0.00 | 0.10 | 0.10 | 86 | 1017.6 |
| 20260507045042 | 58 | 82 | 5.0 | 10.0 | 0.00 | 0.10 | 0.10 | 86 | 1016.5 |
| 20260507044845 | 58 | 62 | 4.0 | 10.0 | 0.00 | 0.10 | 0.10 | 86 | 1017.4 |
| 20260507044515 | 58 | 57 | 5.0 | 10.0 | 0.00 | 0.10 | 0.10 | 86 | 1016.3 |
| 20260507044341 | 58 | 25 | 4.0 | 8.0 | 0.00 | 0.10 | 0.10 | 86 | 1017.4 |
| 20260507044054 | 58 | 38 | 4.0 | 7.0 | 0.00 | 0.10 | 0.10 | 86 | 1016.2 |
| 20260507043830 | 58 | 54 | 3.0 | 9.0 | 0.00 | 0.10 | 0.10 | 86 | 1017.3 |
| 20260507043548 | 58 | 78 | 4.0 | 9.0 | 0.00 | 0.10 | 0.10 | 85 | 1016.2 |
| 20260507043324 | 59 | 32 | 3.0 | 9.0 | 0.00 | 0.10 | 0.10 | 85 | 1017.2 |
| 20260507043023 | 58 | 44 | 3.0 | 7.0 | 0.00 | 0.10 | 0.10 | 86 | 1016.2 |
| 20260507042821 | 59 | 19 | 3.0 | 7.0 | 0.00 | 0.10 | 0.10 | 86 | 1017.2 |
| 20260507042507 | 58 | 43 | 3.0 | 9.0 | 0.00 | 0.10 | 0.10 | 85 | 1016.2 |
| 20260507042339 | 59 | 36 | 4.0 | 9.0 | 0.00 | 0.10 | 0.10 | 85 | 1017.3 |
| 20260507042038 | 58 | 64 | 4.0 | 9.0 | 0.00 | 0.10 | 0.10 | 85 | 1016.2 |
| 20260507041815 | 59 | 70 | 4.0 | 9.0 | 0.00 | 0.10 | 0.10 | 85 | 1017.3 |
| 20260507041528 | 58 | 60 | 3.0 | 7.0 | 0.00 | 0.10 | 0.10 | 85 | 1016.1 |
| 20260507041331 | 59 | 66 | 3.0 | 9.0 | 0.00 | 0.10 | 0.10 | 85 | 1017.1 |
| 20260507041013 | 58 | 56 | 2.0 | 9.0 | 0.00 | 0.10 | 0.10 | 85 | 1016.0 |
| 20260507040826 | 59 | 54 | 4.0 | 11.0 | 0.00 | 0.10 | 0.10 | 85 | 1017.0 |
| 20260507040507 | 58 | 58 | 3.0 | 12.0 | 0.00 | 0.10 | 0.10 | 85 | 1015.8 |
| 20260507040325 | 59 | 51 | 4.0 | 12.0 | 0.00 | 0.10 | 0.10 | 85 | 1016.9 |
| 20260507040058 | 59 | 62 | 6.0 | 12.0 | 0.00 | 0.10 | 0.10 | 85 | 1015.6 |
| 20260507035821 | 59 | 61 | 5.0 | 12.0 | 0.00 | 0.10 | 0.10 | 85 | 1016.7 |
| 20260507035548 | 59 | 49 | 4.0 | 10.0 | 0.00 | 0.10 | 0.10 | 85 | 1015.5 |
| 20260507035316 | 59 | 54 | 6.0 | 10.0 | 0.00 | 0.10 | 0.10 | 85 | 1016.6 |
| 20260507035042 | 59 | 48 | 4.0 | 10.0 | 0.00 | 0.10 | 0.10 | 85 | 1015.5 |
| 20260507034851 | 59 | 58 | 5.0 | 10.0 | 0.00 | 0.10 | 0.10 | 85 | 1016.6 |
| 20260507034508 | 59 | 61 | 3.0 | 9.0 | 0.00 | 0.10 | 0.10 | 85 | 1015.7 |
| 20260507034347 | 59 | 67 | 4.0 | 9.0 | 0.00 | 0.10 | 0.10 | 85 | 1016.8 |
| 20260507034038 | 59 | 48 | 4.0 | 9.0 | 0.00 | 0.10 | 0.10 | 85 | 1015.7 |
| 20260507033823 | 59 | 50 | 5.0 | 10.0 | 0.00 | 0.10 | 0.10 | 85 | 1016.9 |
| 20260507033530 | 59 | 70 | 4.0 | 10.0 | 0.00 | 0.10 | 0.10 | 85 | 1015.8 |
| 20260507033320 | 60 | 52 | 4.0 | 10.0 | 0.00 | 0.10 | 0.10 | 85 | 1017.0 |
| 20260507033024 | 59 | 60 | 4.0 | 9.0 | 0.00 | 0.10 | 0.10 | 85 | 1015.8 |
| 20260507032815 | 60 | 80 | 5.0 | 9.0 | 0.00 | 0.10 | 0.10 | 84 | 1016.9 |
| 20260507032510 | 59 | 51 | 3.0 | 10.0 | 0.00 | 0.10 | 0.10 | 84 | 1015.8 |
| 20260507032331 | 60 | 61 | 4.0 | 10.0 | 0.00 | 0.10 | 0.10 | 84 | 1017.0 |
| 20260507032006 | 59 | 18 | 4.0 | 10.0 | 0.00 | 0.10 | 0.10 | 84 | 1015.7 |
| 20260507031827 | 60 | 49 | 6.0 | 10.0 | 0.00 | 0.10 | 0.10 | 84 | 1016.8 |
| 20260507031554 | 59 | 25 | 4.0 | 9.0 | 0.00 | 0.10 | 0.10 | 84 | 1015.6 |
| 20260507031322 | 60 | 39 | 4.0 | 8.0 | 0.00 | 0.10 | 0.10 | 84 | 1016.7 |
| 20260507031048 | 60 | 33 | 4.0 | 8.0 | 0.00 | 0.10 | 0.10 | 84 | 1015.7 |
| 20260507030816 | 60 | 45 | 4.0 | 8.0 | 0.00 | 0.10 | 0.10 | 84 | 1016.8 |
| 20260507030539 | 60 | 8 | 3.0 | 10.0 | 0.00 | 0.10 | 0.10 | 84 | 1015.6 |
| 20260507030352 | 60 | 29 | 4.0 | 10.0 | 0.00 | 0.10 | 0.10 | 84 | 1017.0 |
| 20260507030005 | 60 | 23 | 4.0 | 10.0 | 0.00 | 0.10 | 0.10 | 84 | 1015.8 |
| 20260507025846 | 61 | 18 | 5.0 | 10.0 | 0.00 | 0.10 | 0.10 | 84 | 1016.9 |
| 20260507025538 | 60 | 18 | 3.0 | 9.0 | 0.00 | 0.10 | 0.10 | 84 | 1015.9 |
| 20260507025321 | 61 | 4 | 4.0 | 9.0 | 0.00 | 0.10 | 0.10 | 84 | 1017.1 |
| 20260507025030 | 60 | 23 | 3.0 | 9.0 | 0.00 | 0.10 | 0.10 | 84 | 1015.9 |
| 20260507024816 | 61 | 12 | 4.0 | 9.0 | 0.00 | 0.10 | 0.10 | 84 | 1017.1 |
| 20260507024512 | 60 | 359 | 4.0 | 9.0 | 0.00 | 0.10 | 0.10 | 84 | 1015.9 |
| 20260507024350 | 61 | 354 | 4.0 | 9.0 | 0.00 | 0.10 | 0.10 | 84 | 1017.2 |
| 20260507024049 | 60 | 359 | 4.0 | 9.0 | 0.00 | 0.10 | 0.10 | 84 | 1015.8 |
| 20260507023845 | 61 | 359 | 3.0 | 9.0 | 0.00 | 0.10 | 0.10 | 84 | 1017.0 |
| 20260507023527 | 60 | 354 | 4.0 | 9.0 | 0.00 | 0.10 | 0.10 | 84 | 1015.8 |
| 20260507023341 | 61 | 16 | 3.0 | 9.0 | 0.00 | 0.10 | 0.10 | 85 | 1016.9 |
| 20260507023044 | 60 | 32 | 2.0 | 9.0 | 0.00 | 0.10 | 0.10 | 85 | 1015.8 |
| 20260507022815 | 61 | 14 | 4.0 | 9.0 | 0.00 | 0.10 | 0.10 | 85 | 1016.9 |
| 20260507022538 | 60 | 26 | 1.0 | 5.0 | 0.00 | 0.10 | 0.10 | 85 | 1015.7 |
| 20260507022332 | 61 | 10 | 3.0 | 5.0 | 0.00 | 0.10 | 0.10 | 85 | 1016.9 |
| 20260507022031 | 60 | 31 | 1.0 | 5.0 | 0.00 | 0.10 | 0.10 | 85 | 1015.8 |
| 20260507021828 | 61 | 346 | 2.0 | 6.0 | 0.00 | 0.10 | 0.10 | 85 | 1016.9 |
| 20260507021514 | 60 | 359 | 2.0 | 6.0 | 0.00 | 0.10 | 0.10 | 85 | 1015.6 |
| 20260507021325 | 61 | 21 | 3.0 | 6.0 | 0.00 | 0.10 | 0.10 | 85 | 1016.7 |
| 20260507021010 | 60 | 10 | 3.0 | 6.0 | 0.00 | 0.10 | 0.10 | 85 | 1015.4 |
| 20260507020821 | 61 | 16 | 3.0 | 6.0 | 0.00 | 0.10 | 0.10 | 85 | 1016.6 |
| 20260507020600 | 60 | 15 | 2.0 | 8.0 | 0.00 | 0.10 | 0.10 | 85 | 1015.4 |
| 20260507020317 | 61 | 35 | 2.0 | 8.0 | 0.00 | 0.10 | 0.10 | 85 | 1016.6 |
| 20260507020106 | 60 | 16 | 3.0 | 8.0 | 0.00 | 0.10 | 0.10 | 85 | 1015.3 |
| 20260507015833 | 61 | 359 | 4.0 | 8.0 | 0.00 | 0.10 | 0.10 | 85 | 1016.5 |
| 20260507015550 | 60 | 11 | 2.0 | 8.0 | 0.00 | 0.10 | 0.10 | 85 | 1015.1 |
| 20260507015330 | 61 | 22 | 4.0 | 8.0 | 0.00 | 0.10 | 0.10 | 85 | 1016.3 |
| 20260507015044 | 60 | 39 | 2.0 | 6.0 | 0.00 | 0.10 | 0.10 | 85 | 1015.1 |
| 20260507014827 | 61 | 359 | 3.0 | 6.0 | 0.00 | 0.10 | 0.10 | 85 | 1016.5 |
| 20260507014539 | 60 | 28 | 2.0 | 6.0 | 0.00 | 0.10 | 0.10 | 85 | 1015.2 |
| 20260507014323 | 61 | 10 | 3.0 | 6.0 | 0.00 | 0.10 | 0.10 | 85 | 1016.5 |
| 20260507014026 | 60 | 359 | 3.0 | 6.0 | 0.00 | 0.10 | 0.10 | 85 | 1015.1 |
| 20260507013820 | 61 | 19 | 3.0 | 6.0 | 0.00 | 0.10 | 0.10 | 85 | 1016.4 |
| 20260507013520 | 60 | 53 | 1.0 | 6.0 | 0.00 | 0.10 | 0.10 | 85 | 1014.8 |
| 20260507013317 | 61 | 53 | 2.0 | 6.0 | 0.00 | 0.10 | 0.10 | 85 | 1016.1 |
| 20260507013013 | 60 | 35 | 1.0 | 6.0 | 0.00 | 0.10 | 0.10 | 84 | 1014.7 |
| 20260507012832 | 61 | 27 | 1.0 | 6.0 | 0.00 | 0.10 | 0.10 | 84 | 1016.0 |
| 20260507012607 | 60 | 39 | 3.0 | 6.0 | 0.00 | 0.10 | 0.10 | 84 | 1014.8 |
| 20260507012328 | 61 | 25 | 3.0 | 6.0 | 0.00 | 0.10 | 0.10 | 84 | 1016.1 |
| 20260507012054 | 60 | 41 | 2.0 | 6.0 | 0.00 | 0.10 | 0.10 | 84 | 1014.6 |
| 20260507011844 | 61 | 34 | 2.0 | 6.0 | 0.00 | 0.10 | 0.10 | 84 | 1016.1 |
| 20260507011532 | 60 | 33 | 3.0 | 5.0 | 0.00 | 0.10 | 0.10 | 84 | 1014.7 |
| 20260507011320 | 61 | 73 | 3.0 | 5.0 | 0.00 | 0.10 | 0.10 | 84 | 1016.0 |
| 20260507011021 | 60 | 41 | 1.0 | 8.0 | 0.00 | 0.10 | 0.10 | 84 | 1014.5 |
| 20260507010816 | 61 | 51 | 3.0 | 8.0 | 0.00 | 0.10 | 0.10 | 84 | 1015.7 |
| 20260507010518 | 60 | 4 | 3.0 | 8.0 | 0.00 | 0.10 | 0.10 | 84 | 1014.1 |
| 20260507010332 | 61 | 33 | 4.0 | 7.0 | 0.00 | 0.10 | 0.10 | 84 | 1015.3 |
| 20260507010111 | 60 | 18 | 3.0 | 7.0 | 0.00 | 0.10 | 0.10 | 84 | 1013.7 |
| 20260507005829 | 61 | 8 | 5.0 | 8.0 | 0.00 | 0.10 | 0.10 | 84 | 1015.1 |
| 20260507005552 | 61 | 9 | 3.0 | 7.0 | 0.00 | 0.10 | 0.10 | 84 | 1013.8 |
| 20260507005324 | 61 | 34 | 3.0 | 7.0 | 0.00 | 0.10 | 0.10 | 84 | 1015.1 |
| 20260507005046 | 61 | 24 | 3.0 | 7.0 | 0.00 | 0.10 | 0.10 | 84 | 1013.6 |
| 20260507004821 | 61 | 32 | 2.0 | 7.0 | 0.00 | 0.10 | 0.10 | 84 | 1015.1 |
| 20260507004541 | 61 | 41 | 2.0 | 7.0 | 0.00 | 0.10 | 0.10 | 84 | 1013.6 |
| 20260507004318 | 61 | 28 | 3.0 | 10.0 | 0.00 | 0.10 | 0.10 | 84 | 1015.1 |
| 20260507004030 | 61 | 27 | 3.0 | 10.0 | 0.00 | 0.10 | 0.10 | 84 | 1013.5 |
| 20260507003815 | 61 | 50 | 5.0 | 10.0 | 0.00 | 0.10 | 0.10 | 83 | 1015.0 |
| 20260507003516 | 61 | 359 | 2.0 | 8.0 | 0.00 | 0.10 | 0.10 | 84 | 1013.5 |
| 20260507003331 | 61 | 20 | 4.0 | 8.0 | 0.00 | 0.10 | 0.10 | 84 | 1014.9 |
| 20260507003012 | 61 | 4 | 3.0 | 6.0 | 0.00 | 0.10 | 0.10 | 84 | 1013.5 |
| 20260507002828 | 61 | 19 | 3.0 | 8.0 | 0.00 | 0.10 | 0.10 | 84 | 1014.8 |
| 20260507002504 | 61 | 14 | 2.0 | 8.0 | 0.00 | 0.10 | 0.10 | 84 | 1013.4 |
| 20260507002324 | 62 | 25 | 3.0 | 8.0 | 0.00 | 0.10 | 0.10 | 84 | 1014.7 |
| 20260507002101 | 61 | 43 | 3.0 | 8.0 | 0.00 | 0.10 | 0.10 | 84 | 1013.3 |
| 20260507001820 | 62 | 19 | 3.0 | 8.0 | 0.00 | 0.10 | 0.10 | 84 | 1014.8 |
| 20260507001558 | 61 | 36 | 3.0 | 8.0 | 0.00 | 0.10 | 0.10 | 84 | 1013.4 |
| 20260507001317 | 62 | 27 | 4.0 | 8.0 | 0.00 | 0.10 | 0.10 | 84 | 1014.8 |
| 20260507001046 | 61 | 4 | 3.0 | 8.0 | 0.00 | 0.10 | 0.10 | 84 | 1013.3 |
| 20260507000832 | 61 | 9 | 4.0 | 8.0 | 0.00 | 0.10 | 0.10 | 84 | 1014.8 |
| 20260507000536 | 61 | 15 | 4.0 | 10.0 | 0.00 | 0.10 | 0.10 | 84 | 1013.4 |
| 20260507000328 | 62 | 17 | 4.0 | 10.0 | 0.00 | 0.10 | 0.10 | 84 | 1014.7 |
| 20260507000030 | 61 | 11 | 4.0 | 10.0 | 0.00 | 0.10 | 0.10 | 84 | 1013.2 |
| 20260506235824 | 62 | 19 | 5.0 | 10.0 | 0.00 | 0.10 | 0.10 | 84 | 1014.7 |
| 20260506235524 | 61 | 354 | 4.0 | 8.0 | 0.00 | 0.10 | 0.10 | 84 | 1013.2 |
| 20260506235319 | 62 | 29 | 5.0 | 8.0 | 0.00 | 0.10 | 0.10 | 84 | 1014.6 |
| 20260506235017 | 61 | 10 | 3.0 | 10.0 | 0.00 | 0.10 | 0.10 | 84 | 1013.0 |
| 20260506234815 | 61 | 14 | 4.0 | 10.0 | 0.00 | 0.10 | 0.10 | 84 | 1014.6 |
| 20260506234507 | 61 | 33 | 5.0 | 10.0 | 0.00 | 0.10 | 0.10 | 84 | 1013.0 |
| 20260506234333 | 61 | 14 | 5.0 | 10.0 | 0.00 | 0.10 | 0.10 | 84 | 1014.6 |
| 20260506234002 | 61 | 24 | 4.0 | 10.0 | 0.00 | 0.10 | 0.10 | 84 | 1013.1 |
| 20260506233829 | 62 | 32 | 5.0 | 10.0 | 0.00 | 0.10 | 0.10 | 84 | 1014.5 |
| 20260506233556 | 61 | 33 | 3.0 | 8.0 | 0.00 | 0.10 | 0.10 | 84 | 1013.0 |
| 20260506233324 | 61 | 23 | 4.0 | 8.0 | 0.00 | 0.10 | 0.10 | 84 | 1014.6 |
| 20260506233052 | 61 | 4 | 3.0 | 6.0 | 0.00 | 0.10 | 0.10 | 84 | 1013.2 |
| 20260506232840 | 61 | 41 | 2.0 | 6.0 | 0.00 | 0.10 | 0.10 | 85 | 1014.7 |
| 20260506232517 | 61 | 14 | 3.0 | 6.0 | 0.00 | 0.10 | 0.10 | 84 | 1013.3 |
| 20260506232316 | 61 | 4 | 3.0 | 6.0 | 0.00 | 0.10 | 0.10 | 84 | 1014.9 |
| 20260506232002 | 61 | 359 | 3.0 | 8.0 | 0.00 | 0.10 | 0.10 | 84 | 1013.3 |
| 20260506231849 | 61 | 9 | 3.0 | 8.0 | 0.00 | 0.10 | 0.10 | 84 | 1014.8 |
| 20260506231534 | 61 | 19 | 3.0 | 8.0 | 0.00 | 0.10 | 0.10 | 84 | 1013.3 |
| 20260506231343 | 61 | 27 | 5.0 | 9.0 | 0.00 | 0.10 | 0.10 | 84 | 1014.6 |
| 20260506231100 | 60 | 23 | 2.0 | 9.0 | 0.00 | 0.10 | 0.10 | 85 | 1013.3 |
| 20260506230820 | 61 | 17 | 3.0 | 9.0 | 0.00 | 0.10 | 0.10 | 85 | 1014.7 |
| 20260506230556 | 60 | 348 | 5.0 | 9.0 | 0.00 | 0.10 | 0.10 | 84 | 1013.1 |
| 20260506230317 | 61 | 26 | 5.0 | 8.0 | 0.00 | 0.10 | 0.10 | 84 | 1014.7 |
| 20260506230050 | 60 | 20 | 3.0 | 9.0 | 0.00 | 0.10 | 0.10 | 84 | 1013.2 |
| 20260506225832 | 61 | 33 | 3.0 | 11.0 | 0.00 | 0.10 | 0.10 | 84 | 1014.7 |
| 20260506225538 | 60 | 62 | 3.0 | 11.0 | 0.00 | 0.10 | 0.10 | 84 | 1013.2 |
| 20260506225327 | 61 | 35 | 5.0 | 11.0 | 0.00 | 0.10 | 0.10 | 84 | 1014.7 |
| 20260506225035 | 60 | 21 | 5.0 | 11.0 | 0.00 | 0.10 | 0.10 | 85 | 1013.3 |
| 20260506224845 | 61 | 354 | 2.0 | 10.0 | 0.00 | 0.10 | 0.10 | 85 | 1014.7 |
| 20260506224559 | 60 | 354 | 3.0 | 10.0 | 0.00 | 0.10 | 0.10 | 85 | 1013.0 |
| 20260506224321 | 61 | 42 | 5.0 | 10.0 | 0.00 | 0.10 | 0.10 | 84 | 1014.4 |
| 20260506224049 | 60 | 14 | 4.0 | 11.0 | 0.00 | 0.10 | 0.10 | 85 | 1013.0 |
| 20260506223818 | 61 | 43 | 4.0 | 11.0 | 0.00 | 0.10 | 0.10 | 85 | 1014.6 |
| 20260506223542 | 60 | 16 | 6.0 | 11.0 | 0.00 | 0.10 | 0.10 | 85 | 1012.9 |
| 20260506223315 | 60 | 14 | 5.0 | 11.0 | 0.00 | 0.10 | 0.10 | 86 | 1014.3 |
| 20260506223036 | 60 | 316 | 2.0 | 11.0 | 0.00 | 0.10 | 0.10 | 86 | 1012.7 |
| 20260506222831 | 60 | 354 | 5.0 | 11.0 | 0.00 | 0.10 | 0.10 | 85 | 1014.5 |
| 20260506222530 | 59 | 359 | 7.0 | 11.0 | 0.00 | 0.10 | 0.10 | 85 | 1012.8 |
| 20260506222328 | 60 | 20 | 7.0 | 11.0 | 0.00 | 0.10 | 0.10 | 85 | 1014.2 |
| 20260506222012 | 59 | 30 | 6.0 | 11.0 | 0.00 | 0.10 | 0.10 | 85 | 1012.6 |
| 20260506221826 | 60 | 28 | 7.0 | 11.0 | 0.00 | 0.10 | 0.10 | 85 | 1014.2 |
| 20260506221506 | 59 | 345 | 4.0 | 12.0 | 0.00 | 0.10 | 0.10 | 86 | 1012.8 |
| 20260506221322 | 60 | 21 | 6.0 | 12.0 | 0.00 | 0.10 | 0.10 | 85 | 1014.5 |
| 20260506221101 | 59 | 359 | 8.0 | 12.0 | 0.00 | 0.10 | 0.10 | 85 | 1012.7 |
| 20260506220838 | 60 | 359 | 8.0 | 12.0 | 0.00 | 0.10 | 0.10 | 85 | 1014.2 |
| 20260506220527 | 59 | 21 | 6.0 | 12.0 | 0.00 | 0.10 | 0.10 | 85 | 1012.6 |
| 20260506220333 | 60 | 359 | 7.0 | 11.0 | 0.00 | 0.10 | 0.10 | 85 | 1014.5 |
| 20260506220014 | 59 | 60 | 5.0 | 10.0 | 0.00 | 0.10 | 0.10 | 86 | 1012.8 |
| 20260506215849 | 60 | 346 | 5.0 | 10.0 | 0.00 | 0.10 | 0.10 | 86 | 1014.3 |
| 20260506215552 | 59 | 341 | 5.0 | 12.0 | 0.00 | 0.10 | 0.10 | 86 | 1012.7 |
| 20260506215326 | 59 | 35 | 5.0 | 12.0 | 0.00 | 0.10 | 0.10 | 87 | 1014.4 |
| 20260506215042 | 58 | 30 | 6.0 | 12.0 | 0.00 | 0.10 | 0.10 | 86 | 1012.7 |
| 20260506214823 | 59 | 354 | 8.0 | 12.0 | 0.00 | 0.10 | 0.10 | 86 | 1014.3 |
| 20260506214539 | 58 | 350 | 6.0 | 10.0 | 0.00 | 0.10 | 0.10 | 86 | 1013.0 |
| 20260506214320 | 59 | 326 | 7.0 | 9.0 | 0.00 | 0.10 | 0.10 | 87 | 1014.7 |
| 20260506214032 | 58 | 13 | 4.0 | 9.0 | 0.00 | 0.10 | 0.10 | 86 | 1013.0 |
| 20260506213817 | 59 | 354 | 5.0 | 12.0 | 0.00 | 0.10 | 0.10 | 87 | 1014.8 |
| 20260506213531 | 58 | 15 | 5.0 | 12.0 | 0.00 | 0.10 | 0.10 | 87 | 1013.1 |
| 20260506213333 | 58 | 26 | 6.0 | 12.0 | 0.00 | 0.10 | 0.10 | 87 | 1014.4 |
| 20260506213016 | 58 | 316 | 7.0 | 10.0 | 0.00 | 0.10 | 0.10 | 87 | 1012.9 |
| 20260506212830 | 58 | 345 | 7.0 | 11.0 | 0.00 | 0.10 | 0.10 | 87 | 1014.7 |
| 20260506212507 | 58 | 359 | 4.0 | 11.0 | 0.00 | 0.10 | 0.10 | 87 | 1013.4 |
| 20260506212328 | 58 | 359 | 5.0 | 11.0 | 0.00 | 0.10 | 0.10 | 87 | 1015.2 |
| 20260506212102 | 58 | 330 | 6.0 | 11.0 | 0.00 | 0.10 | 0.10 | 87 | 1013.6 |
| 20260506211824 | 58 | 345 | 6.0 | 12.0 | 0.00 | 0.10 | 0.10 | 87 | 1015.1 |
| 20260506211552 | 57 | 346 | 6.0 | 12.0 | 0.00 | 0.10 | 0.10 | 88 | 1013.6 |
| 20260506211339 | 58 | 359 | 8.0 | 12.0 | 0.00 | 0.10 | 0.10 | 87 | 1015.3 |
| 20260506211023 | 57 | 327 | 8.0 | 12.0 | 0.00 | 0.10 | 0.10 | 87 | 1013.6 |
| 20260506210836 | 58 | 359 | 9.0 | 12.0 | 0.00 | 0.10 | 0.10 | 87 | 1015.1 |
| 20260506210547 | 57 | 10 | 4.0 | 12.0 | 0.00 | 0.10 | 0.10 | 88 | 1013.5 |
| 20260506210331 | 58 | 359 | 6.0 | 12.0 | 0.00 | 0.10 | 0.10 | 87 | 1015.3 |
| 20260506210049 | 57 | 21 | 7.0 | 12.0 | 0.00 | 0.10 | 0.10 | 87 | 1013.6 |
| 20260506205828 | 58 | 359 | 6.0 | 12.0 | 0.00 | 0.10 | 0.10 | 87 | 1015.2 |
| 20260506205533 | 57 | 335 | 6.0 | 13.0 | 0.00 | 0.10 | 0.10 | 87 | 1013.6 |
| 20260506205324 | 58 | 21 | 8.0 | 13.0 | 0.00 | 0.10 | 0.10 | 87 | 1015.2 |
| 20260506205024 | 57 | 322 | 8.0 | 13.0 | 0.00 | 0.10 | 0.10 | 87 | 1013.5 |
| 20260506204817 | 58 | 354 | 8.0 | 12.0 | 0.00 | 0.10 | 0.10 | 87 | 1015.2 |
| 20260506204548 | 57 | 338 | 6.0 | 11.0 | 0.00 | 0.10 | 0.10 | 88 | 1013.4 |
| 20260506204332 | 58 | 21 | 7.0 | 11.0 | 0.00 | 0.10 | 0.10 | 88 | 1015.2 |
| 20260506204037 | 57 | 343 | 5.0 | 11.0 | 0.00 | 0.10 | 0.10 | 88 | 1013.5 |
| 20260506203828 | 58 | 327 | 6.0 | 13.0 | 0.00 | 0.10 | 0.10 | 88 | 1015.3 |
| 20260506203527 | 57 | 359 | 7.0 | 13.0 | 0.00 | 0.10 | 0.10 | 88 | 1013.6 |
| 20260506203326 | 57 | 359 | 6.0 | 13.0 | 0.00 | 0.10 | 0.10 | 88 | 1015.4 |
| 20260506203025 | 57 | 337 | 6.0 | 12.0 | 0.00 | 0.10 | 0.10 | 88 | 1013.7 |
| 20260506202821 | 57 | 324 | 6.0 | 12.0 | 0.00 | 0.10 | 0.10 | 88 | 1015.3 |
| 20260506202505 | 57 | 359 | 7.0 | 12.0 | 0.00 | 0.10 | 0.10 | 88 | 1013.4 |
| 20260506202319 | 57 | 336 | 7.0 | 12.0 | 0.00 | 0.10 | 0.10 | 88 | 1015.1 |
| 20260506202103 | 57 | 346 | 5.0 | 13.0 | 0.00 | 0.10 | 0.10 | 88 | 1013.3 |
| 20260506201854 | 57 | 33 | 7.0 | 13.0 | 0.00 | 0.10 | 0.10 | 88 | 1015.3 |
| 20260506201542 | 56 | 354 | 8.0 | 13.0 | 0.00 | 0.10 | 0.10 | 88 | 1013.6 |
| 20260506201328 | 57 | 31 | 7.0 | 16.0 | 0.00 | 0.10 | 0.10 | 88 | 1015.4 |
| 20260506201014 | 56 | 25 | 5.0 | 16.0 | 0.00 | 0.10 | 0.10 | 88 | 1013.7 |
| 20260506200824 | 57 | 12 | 8.0 | 16.0 | 0.00 | 0.10 | 0.10 | 88 | 1015.4 |
| 20260506200505 | 56 | 354 | 6.0 | 14.0 | 0.00 | 0.10 | 0.10 | 88 | 1013.7 |
| 20260506200340 | 57 | 29 | 8.0 | 14.0 | 0.00 | 0.10 | 0.10 | 88 | 1015.4 |
| 20260506200055 | 56 | 4 | 5.0 | 14.0 | 0.00 | 0.10 | 0.10 | 88 | 1013.6 |
| 20260506195830 | 57 | 323 | 9.0 | 14.0 | 0.00 | 0.10 | 0.10 | 88 | 1015.4 |
| 20260506195545 | 57 | 354 | 9.0 | 14.0 | 0.00 | 0.10 | 0.10 | 88 | 1013.5 |
| 20260506195326 | 57 | 320 | 6.0 | 12.0 | 0.00 | 0.10 | 0.10 | 89 | 1015.5 |
| 20260506195039 | 57 | 359 | 7.0 | 12.0 | 0.00 | 0.10 | 0.10 | 89 | 1013.5 |
| 20260506194822 | 57 | 354 | 7.0 | 12.0 | 0.00 | 0.10 | 0.10 | 89 | 1015.3 |
| 20260506194529 | 56 | 337 | 5.0 | 12.0 | 0.00 | 0.10 | 0.10 | 89 | 1013.7 |
| 20260506194317 | 57 | 359 | 8.0 | 12.0 | 0.00 | 0.10 | 0.10 | 89 | 1015.5 |
| 20260506194019 | 56 | 359 | 6.0 | 12.0 | 0.01 | 0.10 | 0.10 | 89 | 1013.6 |
| 20260506193814 | 57 | 10 | 6.0 | 12.0 | 0.01 | 0.10 | 0.10 | 89 | 1015.5 |
| 20260506193506 | 56 | 324 | 9.0 | 12.0 | 0.01 | 0.10 | 0.10 | 89 | 1013.8 |
| 20260506193329 | 56 | 359 | 8.0 | 12.0 | 0.01 | 0.10 | 0.10 | 89 | 1015.6 |
| 20260506193101 | 56 | 342 | 7.0 | 12.0 | 0.01 | 0.10 | 0.10 | 89 | 1013.7 |
| 20260506192825 | 56 | 342 | 9.0 | 12.0 | 0.01 | 0.10 | 0.10 | 89 | 1015.4 |
| 20260506192557 | 56 | 359 | 8.0 | 13.0 | 0.01 | 0.10 | 0.10 | 89 | 1013.5 |
| 20260506192342 | 56 | 4 | 7.0 | 14.0 | 0.01 | 0.10 | 0.10 | 90 | 1015.4 |
| 20260506192027 | 56 | 14 | 8.0 | 14.0 | 0.01 | 0.10 | 0.10 | 89 | 1013.5 |
| 20260506191836 | 56 | 321 | 9.0 | 14.0 | 0.01 | 0.10 | 0.10 | 89 | 1015.5 |
| 20260506191555 | 56 | 342 | 9.0 | 13.0 | 0.01 | 0.10 | 0.10 | 89 | 1013.7 |
| 20260506191331 | 56 | 343 | 8.0 | 11.0 | 0.01 | 0.10 | 0.10 | 89 | 1015.5 |
| 20260506191046 | 56 | 346 | 5.0 | 11.0 | 0.01 | 0.10 | 0.10 | 90 | 1013.7 |
| 20260506190829 | 56 | 4 | 7.0 | 11.0 | 0.01 | 0.10 | 0.10 | 90 | 1015.6 |
| 20260506190543 | 55 | 347 | 5.0 | 12.0 | 0.01 | 0.10 | 0.10 | 90 | 1013.9 |
| 20260506190325 | 56 | 319 | 8.0 | 12.0 | 0.01 | 0.10 | 0.10 | 90 | 1015.8 |
| 20260506190032 | 56 | 324 | 7.0 | 12.0 | 0.01 | 0.10 | 0.10 | 90 | 1013.7 |
| 20260506185822 | 56 | 359 | 5.0 | 12.0 | 0.01 | 0.10 | 0.10 | 90 | 1015.6 |
| 20260506185527 | 56 | 359 | 6.0 | 12.0 | 0.01 | 0.10 | 0.10 | 90 | 1013.8 |
| 20260506185319 | 56 | 359 | 5.0 | 11.0 | 0.01 | 0.10 | 0.10 | 90 | 1015.6 |
| 20260506185014 | 56 | 354 | 5.0 | 12.0 | 0.01 | 0.10 | 0.10 | 90 | 1013.9 |
| 20260506184814 | 56 | 347 | 6.0 | 12.0 | 0.01 | 0.10 | 0.10 | 90 | 1015.8 |
| 20260506184505 | 56 | 324 | 6.0 | 12.0 | 0.01 | 0.10 | 0.10 | 90 | 1013.9 |
| 20260506184331 | 56 | 16 | 7.0 | 12.0 | 0.01 | 0.10 | 0.10 | 89 | 1015.6 |
| 20260506184059 | 55 | 33 | 6.0 | 13.0 | 0.00 | 0.09 | 0.09 | 89 | 1013.7 |
| 20260506183827 | 56 | 359 | 6.0 | 13.0 | 0.00 | 0.09 | 0.09 | 89 | 1015.8 |
| 20260506183555 | 55 | 4 | 6.0 | 14.0 | 0.00 | 0.09 | 0.09 | 89 | 1014.3 |
| 20260506183324 | 56 | 16 | 7.0 | 14.0 | 0.00 | 0.09 | 0.09 | 89 | 1016.2 |
| 20260506183043 | 56 | 345 | 7.0 | 14.0 | 0.00 | 0.09 | 0.09 | 89 | 1013.9 |
| 20260506182819 | 56 | 4 | 7.0 | 14.0 | 0.00 | 0.09 | 0.09 | 89 | 1015.4 |
| 20260506182535 | 56 | 359 | 5.0 | 13.0 | 0.00 | 0.09 | 0.09 | 89 | 1013.7 |
| 20260506182316 | 56 | 320 | 8.0 | 13.0 | 0.00 | 0.09 | 0.09 | 89 | 1015.5 |
| 20260506182018 | 55 | 354 | 7.0 | 13.0 | 0.00 | 0.09 | 0.09 | 89 | 1013.6 |
| 20260506181851 | 56 | 4 | 8.0 | 13.0 | 0.00 | 0.09 | 0.09 | 89 | 1015.4 |
| 20260506181551 | 55 | 308 | 7.0 | 13.0 | 0.00 | 0.09 | 0.09 | 89 | 1013.5 |
| 20260506181325 | 56 | 323 | 8.0 | 13.0 | 0.00 | 0.09 | 0.09 | 89 | 1015.5 |
| 20260506181042 | 55 | 10 | 7.0 | 15.0 | 0.00 | 0.09 | 0.09 | 89 | 1013.5 |
| 20260506180822 | 56 | 359 | 9.0 | 15.0 | 0.00 | 0.09 | 0.09 | 89 | 1015.4 |
| 20260506180534 | 55 | 345 | 9.0 | 15.0 | 0.00 | 0.09 | 0.09 | 89 | 1013.7 |
| 20260506180317 | 56 | 318 | 9.0 | 15.0 | 0.00 | 0.09 | 0.09 | 89 | 1015.7 |
| 20260506180020 | 55 | 330 | 5.0 | 14.0 | 0.00 | 0.09 | 0.09 | 89 | 1013.6 |
| 20260506175833 | 56 | 349 | 7.0 | 15.0 | 0.00 | 0.09 | 0.09 | 89 | 1015.8 |
| 20260506175515 | 55 | 347 | 10.0 | 15.0 | 0.00 | 0.09 | 0.09 | 89 | 1014.1 |
| 20260506175329 | 56 | 348 | 10.0 | 15.0 | 0.00 | 0.09 | 0.09 | 89 | 1015.8 |
| 20260506175003 | 55 | 341 | 6.0 | 17.0 | 0.00 | 0.09 | 0.09 | 90 | 1013.3 |
| 20260506174826 | 56 | 4 | 9.0 | 17.0 | 0.00 | 0.09 | 0.09 | 89 | 1015.4 |
| 20260506174558 | 55 | 341 | 12.0 | 17.0 | 0.00 | 0.09 | 0.09 | 89 | 1013.9 |
| 20260506174323 | 56 | 334 | 11.0 | 17.0 | 0.00 | 0.09 | 0.09 | 90 | 1016.0 |
| 20260506174049 | 56 | 344 | 9.0 | 16.0 | 0.00 | 0.09 | 0.09 | 90 | 1013.9 |
| 20260506173819 | 56 | 320 | 9.0 | 16.0 | 0.00 | 0.09 | 0.09 | 90 | 1015.9 |
| 20260506173543 | 56 | 359 | 7.0 | 16.0 | 0.00 | 0.09 | 0.09 | 90 | 1013.7 |
| 20260506173314 | 56 | 343 | 6.0 | 16.0 | 0.00 | 0.09 | 0.09 | 90 | 1015.3 |
| 20260506173033 | 56 | 15 | 5.0 | 16.0 | 0.00 | 0.09 | 0.09 | 90 | 1013.2 |
| 20260506172827 | 56 | 14 | 9.0 | 16.0 | 0.00 | 0.09 | 0.09 | 90 | 1015.3 |
| 20260506172513 | 56 | 14 | 6.0 | 15.0 | 0.00 | 0.09 | 0.09 | 90 | 1013.2 |
| 20260506172323 | 56 | 359 | 5.0 | 15.0 | 0.00 | 0.09 | 0.09 | 90 | 1014.9 |
| 20260506172005 | 56 | 319 | 7.0 | 15.0 | 0.00 | 0.09 | 0.09 | 90 | 1013.5 |
| 20260506171821 | 56 | 359 | 10.0 | 15.0 | 0.00 | 0.09 | 0.09 | 90 | 1015.6 |
| 20260506171600 | 56 | 359 | 7.0 | 15.0 | 0.00 | 0.09 | 0.09 | 90 | 1013.6 |
| 20260506171316 | 56 | 359 | 8.0 | 14.0 | 0.00 | 0.09 | 0.09 | 90 | 1015.3 |
| 20260506171049 | 56 | 307 | 8.0 | 14.0 | 0.00 | 0.09 | 0.09 | 90 | 1013.1 |
| 20260506170833 | 57 | 359 | 7.0 | 14.0 | 0.00 | 0.09 | 0.09 | 90 | 1014.8 |
| 20260506170543 | 56 | 359 | 8.0 | 14.0 | 0.00 | 0.09 | 0.09 | 90 | 1012.7 |
| 20260506170329 | 57 | 359 | 8.0 | 14.0 | 0.00 | 0.09 | 0.09 | 90 | 1014.7 |
| 20260506170037 | 57 | 359 | 10.0 | 14.0 | 0.00 | 0.09 | 0.09 | 91 | 1012.8 |
| 20260506165826 | 57 | 318 | 6.0 | 11.0 | 0.00 | 0.09 | 0.09 | 91 | 1014.7 |
| 20260506165538 | 57 | 359 | 5.0 | 11.0 | 0.00 | 0.09 | 0.09 | 91 | 1012.7 |
| 20260506165322 | 57 | 359 | 5.0 | 11.0 | 0.00 | 0.09 | 0.09 | 91 | 1014.7 |
| 20260506165027 | 56 | 359 | 6.0 | 11.0 | 0.00 | 0.09 | 0.09 | 92 | 1012.3 |
| 20260506164817 | 57 | 359 | 7.0 | 11.0 | 0.00 | 0.09 | 0.09 | 92 | 1014.2 |
| 20260506164549 | 56 | 17 | 5.0 | 11.0 | 0.00 | 0.09 | 0.09 | 92 | 1012.1 |
| 20260506164331 | 56 | 359 | 5.0 | 11.0 | 0.00 | 0.09 | 0.09 | 92 | 1014.1 |
| 20260506164043 | 55 | 4 | 4.0 | 10.0 | 0.00 | 0.09 | 0.09 | 91 | 1012.2 |
| 20260506163848 | 56 | 16 | 5.0 | 10.0 | 0.00 | 0.09 | 0.09 | 91 | 1014.4 |
| 20260506163513 | 55 | 359 | 7.0 | 10.0 | 0.00 | 0.09 | 0.09 | 91 | 1012.4 |
| 20260506163322 | 56 | 4 | 5.0 | 10.0 | 0.00 | 0.09 | 0.09 | 92 | 1014.7 |
| 20260506163003 | 55 | 14 | 3.0 | 8.0 | 0.01 | 0.09 | 0.09 | 92 | 1012.8 |
| 20260506162818 | 56 | 354 | 4.0 | 8.0 | 0.01 | 0.09 | 0.09 | 92 | 1014.8 |
| 20260506162553 | 55 | 359 | 3.0 | 7.0 | 0.01 | 0.09 | 0.09 | 91 | 1012.6 |
| 20260506162315 | 55 | 354 | 4.0 | 10.0 | 0.01 | 0.09 | 0.09 | 91 | 1014.6 |
| 20260506162045 | 55 | 332 | 3.0 | 10.0 | 0.02 | 0.09 | 0.09 | 91 | 1012.5 |
| 20260506161829 | 55 | 27 | 3.0 | 10.0 | 0.02 | 0.09 | 0.09 | 91 | 1014.2 |
| 20260506161542 | 55 | 79 | 5.0 | 10.0 | 0.02 | 0.09 | 0.09 | 92 | 1012.2 |
| 20260506161327 | 55 | 154 | 4.0 | 11.0 | 0.02 | 0.09 | 0.09 | 92 | 1014.0 |
| 20260506161032 | 54 | 84 | 3.0 | 11.0 | 0.02 | 0.09 | 0.09 | 92 | 1011.8 |
| 20260506160822 | 55 | 59 | 5.0 | 14.0 | 0.02 | 0.09 | 0.09 | 92 | 1013.7 |
| 20260506160527 | 54 | 124 | 6.0 | 14.0 | 0.02 | 0.09 | 0.09 | 91 | 1011.8 |
| 20260506160318 | 55 | 85 | 6.0 | 16.0 | 0.03 | 0.09 | 0.09 | 91 | 1013.7 |
| 20260506160012 | 54 | 122 | 6.0 | 16.0 | 0.04 | 0.09 | 0.09 | 91 | 1011.9 |
| 20260506155854 | 55 | 137 | 6.0 | 16.0 | 0.04 | 0.09 | 0.09 | 91 | 1013.8 |
| 20260506155539 | 54 | 97 | 8.0 | 16.0 | 0.06 | 0.09 | 0.09 | 92 | 1011.5 |
| 20260506155329 | 55 | 57 | 7.0 | 13.0 | 0.07 | 0.09 | 0.09 | 92 | 1013.7 |
| 20260506155034 | 54 | 97 | 7.0 | 14.0 | 0.08 | 0.09 | 0.09 | 92 | 1011.5 |
| 20260506154825 | 55 | 110 | 7.0 | 14.0 | 0.08 | 0.09 | 0.09 | 92 | 1013.1 |
| 20260506154531 | 54 | 76 | 8.0 | 14.0 | 0.08 | 0.09 | 0.09 | 92 | 1011.0 |
| 20260506154323 | 54 | 63 | 7.0 | 12.0 | 0.08 | 0.09 | 0.09 | 91 | 1013.1 |
| 20260506154010 | 54 | 66 | 5.0 | 14.0 | 0.08 | 0.09 | 0.09 | 91 | 1011.8 |
| 20260506153820 | 54 | 124 | 6.0 | 14.0 | 0.08 | 0.09 | 0.09 | 91 | 1014.3 |
| 20260506153559 | 54 | 77 | 7.0 | 14.0 | 0.08 | 0.09 | 0.09 | 91 | 1011.9 |
| 20260506153336 | 54 | 93 | 5.0 | 10.0 | 0.08 | 0.09 | 0.09 | 91 | 1014.0 |
| 20260506153030 | 54 | 77 | 4.0 | 15.0 | 0.07 | 0.08 | 0.08 | 91 | 1013.0 |
| 20260506152832 | 54 | 23 | 2.0 | 15.0 | 0.07 | 0.08 | 0.08 | 91 | 1015.4 |
| 20260506152518 | 54 | 333 | 7.0 | 15.0 | 0.07 | 0.08 | 0.08 | 91 | 1013.0 |
| 20260506152327 | 54 | 342 | 10.0 | 15.0 | 0.07 | 0.08 | 0.08 | 91 | 1014.2 |
| 20260506152005 | 54 | 22 | 8.0 | 13.0 | 0.06 | 0.07 | 0.07 | 91 | 1012.7 |
| 20260506151824 | 55 | 359 | 6.0 | 10.0 | 0.06 | 0.07 | 0.07 | 91 | 1015.1 |
| 20260506151601 | 54 | 303 | 1.0 | 14.0 | 0.06 | 0.07 | 0.07 | 91 | 1013.7 |
| 20260506151321 | 55 | 57 | 6.0 | 14.0 | 0.06 | 0.07 | 0.07 | 91 | 1015.6 |
| 20260506151053 | 54 | 359 | 8.0 | 13.0 | 0.06 | 0.07 | 0.07 | 91 | 1013.3 |
| 20260506150817 | 55 | 27 | 6.0 | 12.0 | 0.06 | 0.07 | 0.07 | 91 | 1015.5 |
| 20260506150545 | 54 | 20 | 6.0 | 14.0 | 0.05 | 0.06 | 0.07 | 91 | 1013.6 |
| 20260506150334 | 55 | 4 | 5.0 | 15.0 | 0.05 | 0.06 | 0.06 | 91 | 1015.5 |
| 20260506150009 | 55 | 4 | 7.0 | 17.0 | 0.04 | 0.05 | 0.05 | 91 | 1013.5 |
| 20260506145830 | 55 | 26 | 7.0 | 17.0 | 0.03 | 0.04 | 0.04 | 91 | 1015.5 |
| 20260506145603 | 55 | 33 | 7.0 | 17.0 | 0.01 | 0.02 | 0.03 | 91 | 1013.3 |
| 20260506145325 | 55 | 30 | 9.0 | 16.0 | 0.01 | 0.02 | 0.02 | 91 | 1015.6 |
| 20260506145052 | 55 | 4 | 9.0 | 19.0 | 0.00 | 0.01 | 0.01 | 91 | 1013.9 |
| 20260506144820 | 56 | 322 | 11.0 | 19.0 | 0.00 | 0.01 | 0.01 | 90 | 1015.9 |
| 20260506144548 | 55 | 349 | 10.0 | 19.0 | 0.00 | 0.01 | 0.01 | 90 | 1013.3 |
| 20260506144315 | 56 | 315 | 11.0 | 19.0 | 0.00 | 0.01 | 0.01 | 91 | 1015.2 |
| 20260506144037 | 56 | 12 | 8.0 | 18.0 | 0.00 | 0.01 | 0.01 | 90 | 1012.7 |
| 20260506143827 | 56 | 14 | 9.0 | 18.0 | 0.00 | 0.01 | 0.01 | 90 | 1014.7 |
| 20260506143601 | 56 | 345 | 10.0 | 18.0 | 0.00 | 0.01 | 0.01 | 90 | 1012.8 |
| 20260506143323 | 57 | 4 | 10.0 | 18.0 | 0.00 | 0.01 | 0.01 | 90 | 1014.9 |
| 20260506143053 | 56 | 348 | 6.0 | 16.0 | 0.00 | 0.01 | 0.01 | 90 | 1012.9 |
| 20260506142819 | 57 | 34 | 9.0 | 16.0 | 0.00 | 0.01 | 0.01 | 89 | 1014.8 |
| 20260506142542 | 57 | 29 | 9.0 | 15.0 | 0.00 | 0.01 | 0.01 | 89 | 1012.5 |
| 20260506142402 | 57 | 8 | 9.0 | 16.0 | 0.00 | 0.01 | 0.01 | 89 | 1014.8 |
| 20260506142013 | 57 | 10 | 9.0 | 16.0 | 0.00 | 0.01 | 0.01 | 89 | 1012.7 |
| 20260506141830 | 58 | 26 | 8.0 | 16.0 | 0.00 | 0.01 | 0.01 | 88 | 1014.7 |
| 20260506141501 | 58 | 335 | 10.0 | 16.0 | 0.00 | 0.01 | 0.01 | 88 | 1012.8 |
| 20260506141325 | 58 | 359 | 9.0 | 17.0 | 0.00 | 0.01 | 0.01 | 88 | 1015.1 |
| 20260506141035 | 58 | 326 | 11.0 | 17.0 | 0.00 | 0.01 | 0.01 | 88 | 1012.7 |
| 20260506140841 | 59 | 359 | 10.0 | 17.0 | 0.00 | 0.01 | 0.01 | 88 | 1014.9 |
| 20260506140601 | 58 | 25 | 8.0 | 17.0 | 0.00 | 0.01 | 0.01 | 88 | 1012.6 |
| 20260506140316 | 59 | 344 | 8.0 | 17.0 | 0.00 | 0.01 | 0.01 | 87 | 1014.5 |
| 20260506140059 | 58 | 4 | 10.0 | 17.0 | 0.00 | 0.01 | 0.01 | 87 | 1012.2 |
| 20260506135831 | 59 | 39 | 8.0 | 16.0 | 0.00 | 0.01 | 0.01 | 87 | 1014.3 |
| 20260506135541 | 59 | 4 | 6.0 | 15.0 | 0.00 | 0.01 | 0.01 | 88 | 1012.2 |
| 20260506135327 | 59 | 350 | 6.0 | 15.0 | 0.00 | 0.01 | 0.01 | 88 | 1014.5 |
| 20260506135032 | 59 | 8 | 7.0 | 15.0 | 0.00 | 0.01 | 0.01 | 87 | 1012.2 |
| 20260506134824 | 59 | 4 | 10.0 | 15.0 | 0.00 | 0.01 | 0.01 | 87 | 1014.6 |
| 20260506134525 | 59 | 36 | 9.0 | 16.0 | 0.00 | 0.01 | 0.01 | 87 | 1012.1 |
| 20260506134320 | 60 | 354 | 10.0 | 16.0 | 0.00 | 0.01 | 0.01 | 87 | 1014.1 |
| 20260506134019 | 59 | 19 | 7.0 | 16.0 | 0.00 | 0.01 | 0.01 | 87 | 1011.4 |
| 20260506133835 | 60 | 38 | 10.0 | 16.0 | 0.00 | 0.01 | 0.01 | 87 | 1013.4 |
| 20260506133541 | 59 | 25 | 6.0 | 14.0 | 0.00 | 0.01 | 0.01 | 88 | 1010.9 |
| 20260506133350 | 60 | 81 | 8.0 | 14.0 | 0.00 | 0.01 | 0.01 | 88 | 1013.0 |
| 20260506133004 | 60 | 10 | 7.0 | 14.0 | 0.00 | 0.01 | 0.01 | 88 | 1010.6 |
| 20260506132824 | 60 | 37 | 7.0 | 14.0 | 0.00 | 0.01 | 0.01 | 88 | 1012.8 |
| 20260506132556 | 60 | 15 | 8.0 | 14.0 | 0.00 | 0.01 | 0.01 | 87 | 1010.4 |
| 20260506132340 | 60 | 27 | 8.0 | 12.0 | 0.00 | 0.01 | 0.01 | 87 | 1012.8 |
| 20260506132027 | 60 | 29 | 6.0 | 14.0 | 0.00 | 0.01 | 0.01 | 87 | 1010.6 |
| 20260506131834 | 61 | 8 | 5.0 | 14.0 | 0.00 | 0.01 | 0.01 | 87 | 1012.8 |
| 20260506131515 | 60 | 37 | 8.0 | 14.0 | 0.00 | 0.01 | 0.01 | 87 | 1010.5 |
| 20260506131328 | 61 | 37 | 8.0 | 14.0 | 0.00 | 0.01 | 0.01 | 87 | 1012.6 |
| 20260506131005 | 60 | 4 | 7.0 | 14.0 | 0.00 | 0.01 | 0.01 | 87 | 1010.5 |
| 20260506130824 | 61 | 10 | 8.0 | 14.0 | 0.00 | 0.01 | 0.01 | 87 | 1012.7 |
| 20260506130557 | 60 | 16 | 7.0 | 12.0 | 0.00 | 0.01 | 0.01 | 87 | 1010.5 |
| 20260506130320 | 61 | 359 | 5.0 | 12.0 | 0.00 | 0.01 | 0.01 | 88 | 1012.8 |
| 20260506130053 | 61 | 4 | 5.0 | 12.0 | 0.00 | 0.01 | 0.01 | 87 | 1010.5 |
| 20260506125816 | 61 | 8 | 5.0 | 9.0 | 0.00 | 0.01 | 0.01 | 88 | 1012.5 |
| 20260506125542 | 61 | 33 | 3.0 | 9.0 | 0.00 | 0.01 | 0.01 | 87 | 1010.2 |
| 20260506125332 | 61 | 50 | 5.0 | 9.0 | 0.01 | 0.01 | 0.01 | 87 | 1012.5 |
| 20260506125037 | 61 | 41 | 4.0 | 9.0 | 0.01 | 0.01 | 0.01 | 88 | 1010.3 |
| 20260506124829 | 62 | 42 | 4.0 | 9.0 | 0.01 | 0.01 | 0.01 | 88 | 1012.6 |
| 20260506124529 | 61 | 14 | 3.0 | 8.0 | 0.01 | 0.01 | 0.01 | 87 | 1010.2 |
| 20260506124325 | 62 | 31 | 3.0 | 10.0 | 0.01 | 0.01 | 0.01 | 87 | 1012.4 |
| 20260506124022 | 61 | 26 | 4.0 | 10.0 | 0.01 | 0.01 | 0.01 | 87 | 1010.1 |
| 20260506123821 | 62 | 62 | 5.0 | 10.0 | 0.01 | 0.01 | 0.01 | 87 | 1012.2 |
| 20260506123515 | 62 | 34 | 2.0 | 10.0 | 0.01 | 0.01 | 0.01 | 87 | 1009.8 |
| 20260506123318 | 62 | 54 | 3.0 | 9.0 | 0.01 | 0.01 | 0.01 | 87 | 1012.1 |
| 20260506123059 | 62 | 34 | 4.0 | 10.0 | 0.01 | 0.01 | 0.01 | 87 | 1009.8 |
| 20260506122816 | 62 | 47 | 5.0 | 10.0 | 0.01 | 0.01 | 0.01 | 86 | 1012.2 |
| 20260506122550 | 62 | 31 | 4.0 | 10.0 | 0.01 | 0.01 | 0.01 | 87 | 1009.8 |
| 20260506122333 | 62 | 32 | 4.0 | 9.0 | 0.01 | 0.01 | 0.01 | 87 | 1012.1 |
| 20260506122042 | 62 | 14 | 4.0 | 9.0 | 0.01 | 0.01 | 0.01 | 87 | 1009.8 |
| 20260506121828 | 62 | 4 | 4.0 | 9.0 | 0.01 | 0.01 | 0.01 | 87 | 1012.0 |
| 20260506121536 | 62 | 4 | 4.0 | 9.0 | 0.01 | 0.01 | 0.01 | 87 | 1009.7 |
| 20260506121340 | 63 | 359 | 5.0 | 9.0 | 0.01 | 0.01 | 0.01 | 87 | 1011.9 |
| 20260506121101 | 62 | 4 | 3.0 | 6.0 | 0.01 | 0.01 | 0.01 | 87 | 1009.6 |
| 20260506120816 | 63 | 16 | 4.0 | 9.0 | 0.01 | 0.01 | 0.01 | 87 | 1011.9 |
| 20260506120555 | 62 | 8 | 3.0 | 10.0 | 0.01 | 0.01 | 0.01 | 87 | 1009.4 |
| 20260506120331 | 63 | 4 | 3.0 | 10.0 | 0.01 | 0.01 | 0.01 | 87 | 1011.8 |
| 20260506120050 | 63 | 39 | 5.0 | 10.0 | 0.01 | 0.01 | 0.01 | 86 | 1009.3 |
| 20260506115826 | 63 | 59 | 6.0 | 9.0 | 0.01 | 0.01 | 0.01 | 87 | 1011.7 |
| 20260506115536 | 63 | 40 | 4.0 | 9.0 | 0.00 | 0.00 | 0.00 | 87 | 1009.2 |
| 20260506115320 | 64 | 41 | 5.0 | 9.0 | 0.00 | 0.00 | 0.00 | 87 | 1011.6 |
| 20260506115028 | 64 | 9 | 5.0 | 9.0 | 0.00 | 0.00 | 0.00 | 87 | 1009.2 |
| 20260506114816 | 64 | 11 | 3.0 | 6.0 | 0.00 | 0.00 | 0.00 | 87 | 1011.5 |
| 20260506114524 | 64 | 18 | 3.0 | 6.0 | 0.00 | 0.00 | 0.00 | 87 | 1009.1 |
| 20260506114331 | 65 | 4 | 3.0 | 5.0 | 0.00 | 0.00 | 0.00 | 88 | 1011.4 |
| 20260506114008 | 64 | 24 | 3.0 | 7.0 | 0.00 | 0.00 | 0.00 | 87 | 1009.2 |
| 20260506113827 | 65 | 359 | 3.0 | 7.0 | 0.00 | 0.00 | 0.00 | 87 | 1011.6 |
| 20260506113604 | 64 | 31 | 2.0 | 7.0 | 0.00 | 0.00 | 0.00 | 87 | 1009.2 |
| 20260506113321 | 65 | 25 | 4.0 | 7.0 | 0.00 | 0.00 | 0.00 | 86 | 1011.5 |
| 20260506113033 | 65 | 18 | 2.0 | 5.0 | 0.00 | 0.00 | 0.00 | 86 | 1009.1 |
| 20260506112818 | 66 | 34 | 3.0 | 6.0 | 0.00 | 0.00 | 0.00 | 86 | 1011.4 |
| 20260506112524 | 65 | 66 | 3.0 | 6.0 | 0.00 | 0.00 | 0.00 | 86 | 1009.1 |
| 20260506112314 | 66 | 73 | 2.0 | 6.0 | 0.00 | 0.00 | 0.00 | 86 | 1011.4 |
| 20260506112010 | 66 | 72 | 3.0 | 7.0 | 0.00 | 0.00 | 0.00 | 86 | 1008.9 |
| 20260506111829 | 66 | 48 | 2.0 | 4.0 | 0.00 | 0.00 | 0.00 | 87 | 1011.3 |
| 20260506111544 | 66 | 27 | 1.0 | 4.0 | 0.00 | 0.00 | 0.00 | 87 | 1009.1 |
| 20260506111325 | 66 | 27 | 1.0 | 6.0 | 0.00 | 0.00 | 0.00 | 87 | 1011.3 |
| 20260506111038 | 66 | 28 | 1.0 | 6.0 | 0.00 | 0.00 | 0.00 | 86 | 1009.0 |
| 20260506110842 | 66 | 28 | 2.0 | 6.0 | 0.00 | 0.00 | 0.00 | 86 | 1011.4 |
| 20260506110606 | 66 | 4 | 3.0 | 5.0 | 0.00 | 0.00 | 0.00 | 86 | 1009.0 |
| 20260506110317 | 67 | 4 | 3.0 | 5.0 | 0.00 | 0.00 | 0.00 | 86 | 1011.4 |
| 20260506110051 | 66 | 359 | 2.0 | 5.0 | 0.00 | 0.00 | 0.00 | 86 | 1009.0 |
| 20260506105814 | 67 | 359 | 3.0 | 5.0 | 0.00 | 0.00 | 0.00 | 86 | 1011.3 |
| 20260506105549 | 66 | 8 | 3.0 | 6.0 | 0.00 | 0.00 | 0.00 | 86 | 1009.0 |
| 20260506105330 | 67 | 4 | 4.0 | 6.0 | 0.00 | 0.00 | 0.00 | 86 | 1011.3 |
| 20260506105037 | 67 | 359 | 2.0 | 6.0 | 0.00 | 0.00 | 0.00 | 86 | 1008.8 |
| 20260506104827 | 67 | 359 | 3.0 | 6.0 | 0.00 | 0.00 | 0.00 | 86 | 1011.1 |
| 20260506104526 | 67 | 8 | 3.0 | 6.0 | 0.00 | 0.00 | 0.00 | 85 | 1008.7 |
| 20260506104323 | 67 | 337 | 3.0 | 6.0 | 0.00 | 0.00 | 0.00 | 85 | 1011.1 |
| 20260506104008 | 67 | 29 | 3.0 | 8.0 | 0.00 | 0.00 | 0.00 | 86 | 1008.8 |
| 20260506103819 | 68 | 359 | 2.0 | 8.0 | 0.00 | 0.00 | 0.00 | 86 | 1011.2 |
| 20260506103600 | 67 | 346 | 3.0 | 9.0 | 0.00 | 0.00 | 0.00 | 86 | 1008.8 |
| 20260506103315 | 68 | 18 | 4.0 | 9.0 | 0.00 | 0.00 | 0.00 | 85 | 1011.1 |
| 20260506103055 | 68 | 359 | 2.0 | 9.0 | 0.00 | 0.00 | 0.00 | 86 | 1008.7 |
| 20260506102830 | 69 | 348 | 5.0 | 9.0 | 0.00 | 0.00 | 0.00 | 85 | 1011.2 |
| 20260506102546 | 69 | 4 | 4.0 | 9.0 | 0.00 | 0.00 | 0.00 | 85 | 1008.7 |
| 20260506102327 | 70 | 354 | 6.0 | 9.0 | 0.00 | 0.00 | 0.00 | 85 | 1011.1 |
| 20260506102039 | 70 | 354 | 0.0 | 0.0 | 0.00 | 0.00 | 0.00 | 85 | 1008.6 |
| 20260506101822 | 72 | 359 | 0.0 | 0.0 | 0.00 | 0.00 | 0.00 | 86 | 1010.9 |
| 20260506101530 | 72 | 348 | 0.0 | 0.0 | 0.00 | 0.00 | 0.00 | 86 | 1008.4 |
| 20260506101318 | 73 | 329 | 0.0 | 0.0 | 0.00 | 0.00 | 0.00 | 88 | 1010.8 |
| 20260506101022 | 73 | 166 | 0.0 | 0.0 | 0.00 | 0.00 | 0.00 | 89 | 1008.4 |
| 20260506100814 | 74 | 166 | 0.0 | 0.0 | 0.00 | 0.00 | 0.00 | 89 | 1010.8 |
| 20260506100506 | 73 | 167 | 0.0 | 0.0 | 0.00 | 0.00 | 0.00 | 89 | 1008.3 |
| 20260506100331 | 74 | 166 | 0.0 | 0.0 | 0.00 | 0.00 | 0.00 | 89 | 1010.6 |
| 20260506100101 | 73 | 166 | 0.0 | 0.0 | 0.00 | 0.00 | 0.00 | 89 | 1008.2 |
| 20260506095827 | 74 | 141 | 0.0 | 0.0 | 0.00 | 0.00 | 0.00 | 89 | 1010.7 |
| 20260506095550 | 73 | 172 | 0.0 | 0.0 | 0.00 | 0.00 | 0.00 | 89 | 1008.1 |
| 20260506095342 | 74 | 161 | 0.0 | 0.0 | 0.00 | 0.00 | 0.00 | 89 | 1010.4 |
| 20260506095021 | 73 | 162 | 0.0 | 0.0 | 0.00 | 0.00 | 0.00 | 89 | 1008.0 |
| 20260506094816 | 74 | 144 | 0.0 | 0.0 | 0.00 | 0.00 | 0.00 | 89 | 1010.4 |
| 20260506094505 | 73 | 180 | 0.0 | 0.0 | 0.00 | 0.00 | 0.00 | 89 | 1008.0 |
| 20260506094333 | 74 | 181 | 0.0 | 0.0 | 0.00 | 0.00 | 0.00 | 89 | 1010.4 |
| 20260506094058 | 74 | 161 | 0.0 | 0.0 | 0.00 | 0.00 | 0.00 | 89 | 1008.0 |
| 20260506093827 | 74 | 160 | 0.0 | 0.0 | 0.00 | 0.00 | 0.00 | 89 | 1010.3 |
| 20260506093552 | 74 | 158 | 0.0 | 0.0 | 0.00 | 0.00 | 0.00 | 88 | 1007.8 |
| 20260506093323 | 74 | 162 | 0.0 | 0.0 | 0.00 | 0.00 | 0.00 | 88 | 1010.2 |
| 20260506093104 | 74 | 149 | 0.0 | 0.0 | 0.00 | 0.00 | 0.00 | 88 | 1007.8 |
| 20260506092818 | 74 | 149 | 0.0 | 0.0 | 0.00 | 0.00 | 0.00 | 88 | 1010.2 |
| 20260506092536 | 74 | 149 | 0.0 | 0.0 | 0.00 | 0.00 | 0.00 | 88 | 1007.8 |
| 20260506092314 | 74 | 149 | 0.0 | 0.0 | 0.00 | 0.00 | 0.00 | 88 | 1010.3 |
| 20260506092030 | 74 | 149 | 0.0 | 0.0 | 0.00 | 0.00 | 0.00 | 88 | 1007.9 |
| 20260506091832 | 74 | 149 | 0.0 | 0.0 | 0.00 | 0.00 | 0.00 | 88 | 1010.3 |
| 20260506091515 | 74 | 148 | 0.0 | 0.0 | 0.00 | 0.00 | 0.00 | 88 | 1007.8 |
| 20260506091322 | 74 | 149 | 0.0 | 0.0 | 0.00 | 0.00 | 0.00 | 88 | 1010.3 |
| 20260506091042 | 74 | 148 | 0.0 | 0.0 | 0.00 | 0.00 | 0.00 | 88 | 1007.8 |
| 20260506090818 | 75 | 149 | 0.0 | 0.0 | 0.00 | 0.00 | 0.00 | 88 | 1010.2 |
| 20260506090536 | 74 | 149 | 0.0 | 0.0 | 0.00 | 0.00 | 0.00 | 88 | 1007.8 |
| 20260506090333 | 75 | 149 | 0.0 | 0.0 | 0.00 | 0.00 | 0.00 | 88 | 1010.2 |
| 20260506090117 | 74 | 148 | 0.0 | 0.0 | 0.00 | 0.00 | 0.00 | 88 | 1007.7 |
| 20260506085828 | 75 | 149 | 0.0 | 0.0 | 0.00 | 0.00 | 0.00 | 88 | 1010.1 |
| 20260506085552 | 74 | 148 | 0.0 | 0.0 | 0.00 | 0.00 | 0.00 | 88 | 1007.6 |
| 20260506085326 | 75 | 149 | 0.0 | 0.0 | 0.00 | 0.00 | 0.00 | 88 | 1010.1 |
| 20260506085048 | 74 | 149 | 0.0 | 0.0 | 0.00 | 0.00 | 0.00 | 88 | 1007.7 |
| 20260506084822 | 75 | 148 | 0.0 | 0.0 | 0.00 | 0.00 | 0.00 | 88 | 1010.0 |
| 20260506084543 | 74 | 148 | 0.0 | 0.0 | 0.00 | 0.00 | 0.00 | 88 | 1007.6 |
| 20260506084316 | 75 | 149 | 0.0 | 0.0 | 0.00 | 0.00 | 0.00 | 88 | 1010.0 |
| 20260506084017 | 74 | 149 | 0.0 | 0.0 | 0.00 | 0.00 | 0.00 | 88 | 1007.6 |
| 20260506083832 | 75 | 149 | 0.0 | 0.0 | 0.00 | 0.00 | 0.00 | 88 | 1010.1 |
| 20260506083600 | 74 | 149 | 0.0 | 0.0 | 0.00 | 0.00 | 0.00 | 88 | 1007.7 |
| 20260506083329 | 75 | 149 | 0.0 | 0.0 | 0.00 | 0.00 | 0.00 | 88 | 1010.0 |
| 20260506083049 | 74 | 149 | 0.0 | 0.0 | 0.00 | 0.00 | 0.00 | 88 | 1007.5 |
| 20260506082825 | 75 | 149 | 0.0 | 0.0 | 0.00 | 0.00 | 0.00 | 88 | 1009.9 |
| 20260506082540 | 74 | 149 | 0.0 | 0.0 | 0.00 | 0.00 | 0.00 | 88 | 1007.5 |
| 20260506082322 | 75 | 135 | 0.0 | 0.0 | 0.00 | 0.00 | 0.00 | 88 | 1009.9 |
| 20260506082034 | 74 | 181 | 0.0 | 0.0 | 0.00 | 0.00 | 0.00 | 88 | 1007.5 |
| 20260506081838 | 75 | 181 | 0.0 | 0.0 | 0.00 | 0.00 | 0.00 | 88 | 1010.0 |
| 20260506081556 | 74 | 181 | 0.0 | 0.0 | 0.00 | 0.00 | 0.00 | 88 | 1007.5 |
| 20260506081333 | 75 | 181 | 0.0 | 0.0 | 0.00 | 0.00 | 0.00 | 88 | 1010.0 |
| 20260506081046 | 74 | 181 | 0.0 | 0.0 | 0.00 | 0.00 | 0.00 | 88 | 1007.5 |
| 20260506080848 | 75 | 181 | 0.0 | 0.0 | 0.00 | 0.00 | 0.00 | 88 | 1010.0 |
| 20260506080512 | 74 | 181 | 0.0 | 0.0 | 0.00 | 0.00 | 0.00 | 88 | 1007.6 |
| 20260506080345 | 75 | 181 | 0.0 | 0.0 | 0.00 | 0.00 | 0.00 | 88 | 1010.0 |
| 20260506073526 | 74 | 181 | 0.0 | 0.0 | 0.00 | 0.00 | 0.00 | 88 | 1007.7 |
| 20260506073317 | 75 | 181 | 0.0 | 0.0 | 0.00 | 0.00 | 0.00 | 88 | 1010.2 |
| 20260506073011 | 74 | 181 | 0.0 | 0.0 | 0.00 | 0.00 | 0.00 | 88 | 1007.8 |
| 20260506072833 | 75 | 181 | 0.0 | 0.0 | 0.00 | 0.00 | 0.00 | 88 | 1010.3 |
| 20260506072503 | 74 | 181 | 0.0 | 0.0 | 0.00 | 0.00 | 0.00 | 88 | 1007.9 |
| 20260506072330 | 75 | 181 | 0.0 | 0.0 | 0.00 | 0.00 | 0.00 | 87 | 1010.3 |
| 20260506072058 | 74 | 181 | 0.0 | 0.0 | 0.00 | 0.00 | 0.00 | 87 | 1007.8 |
| 20260506071827 | 75 | 181 | 0.0 | 0.0 | 0.00 | 0.00 | 0.00 | 87 | 1010.3 |
| 20260506071550 | 75 | 181 | 0.0 | 0.0 | 0.00 | 0.00 | 0.00 | 87 | 1008.0 |
| 20260506071340 | 75 | 181 | 0.0 | 0.0 | 0.00 | 0.00 | 0.00 | 87 | 1010.4 |
| 20260506071020 | 75 | 181 | 0.0 | 0.0 | 0.00 | 0.00 | 0.00 | 87 | 1008.0 |
| 20260506070834 | 75 | 181 | 0.0 | 0.0 | 0.00 | 0.00 | 0.00 | 87 | 1010.3 |
| 20260506070506 | 75 | 181 | 0.0 | 0.0 | 0.00 | 0.00 | 0.00 | 87 | 1008.0 |
| 20260506070330 | 75 | 181 | 0.0 | 0.0 | 0.00 | 0.00 | 0.00 | 87 | 1010.4 |
| 20260506062503 | 75 | 224 | 0.0 | 0.0 | 0.00 | 0.00 | 0.00 | 87 | 1007.9 |
| 20260506062341 | 75 | 225 | 0.0 | 0.0 | 0.00 | 0.00 | 0.00 | 87 | 1010.3 |
| 20260506062034 | 75 | 224 | 0.0 | 0.0 | 0.00 | 0.00 | 0.00 | 87 | 1007.9 |
| 20260506061816 | 75 | 225 | 0.0 | 0.0 | 0.00 | 0.00 | 0.00 | 87 | 1010.2 |
| 20260506061528 | 75 | 225 | 0.0 | 0.0 | 0.00 | 0.00 | 0.00 | 86 | 1007.9 |
| 20260506061331 | 75 | 225 | 0.0 | 0.0 | 0.00 | 0.00 | 0.00 | 87 | 1010.2 |
| 20260506061014 | 75 | 225 | 0.0 | 0.0 | 0.00 | 0.00 | 0.00 | 86 | 1007.7 |
| 20260506060828 | 75 | 225 | 0.0 | 0.0 | 0.00 | 0.00 | 0.00 | 86 | 1010.1 |